IRIDIUM 33 DEB

Satellite information

Favourite Embed

Satellite Type and Status

DEBRISIN ORBIT

Key statistics

Satellite IRIDIUM 33 DEB at a glance.

Uptime

10261

Days in orbit

Revolutions

≈ 14.3

Per day

Orbit

LEO

Low Earth Orbit

Inclination

86.3

Latest

Satellite identification and parameters

Extended collection of information and parameters for IRIDIUM 33 DEB.

Object identification

Identified? True

Debris? True

Object name: IRIDIUM 33 DEB

International designator: 1997-051ZC

Object number (NORAD): 38228

Object ID (CCSDS): 38228

Country: UNITED STATES OF AMERICA (US)

Current information (Y/N): Y

RCS size: SMALL

Orbital parameters

Period: 100.904 minutes

Inclination: 86.2916 deg

SMA: 7179.58 km

Apoapsis: 847.736 km

Periapsis: 755.153 km

RAAN: 72.2972 deg

Eccentricy: 0.0064477

Argument of periapsis: 13.5852 deg

Mean anomaly: 1.5217 deg

Mean motion: 14.27099415 rev/day

Mean motion (dot): 0.00001001 rev/day2

B* drag term: 0.00039432514 1/REarth

Two-line elements (TLE)

Creation date: Oct. 18, 2025, 2:17 a.m.

Reference frame: TEME

Reference center: EARTH

Epoch: Oct. 17, 2025, 4:15 p.m. UTC

TLE line 0: 0 IRIDIUM 33 DEB

TLE line 1: 1 38228U 97051ZC 25290.67710589 .00001001 00000-0 39433-3 0 9993

TLE line 2: 2 38228 86.2916 72.2972 0064477 13.5852 1.5217 14.27099415839826

Live tracking on map

Real-time ground track for satellite IRIDIUM 33 DEB.

In-orbit conjunctions

A list of the most updated potential collisions computed for object IRIDIUM 33 DEB.

Target Orbit TCA Probability of collision Miss distance Type
COSMOS 1867 LEO 2025-03-16 12:22:14 0.0001177758 596.0 (m) PAYLOAD
CZ-6A DEB LEO 2024-10-10 11:17:02 0.0001996216 742.0 (m) DEBRIS
METEOR 1-19 LEO 2024-06-25 00:58:15 0.0001369242 463.0 (m) PAYLOAD

Associated space launch

Iridium provides global mobile telecommunications services using a constellation of 66 low earth orbit satellites in a 86.4° inclined orbit. Although 77 satellites were originally envisioned for the system and spawned the name based on the 77th element in the periodic table, the system has been scaled back. Motorola's Satellite Communications Group designed and manufactured the Iridium satellites with Lockheed Martin providing the LM-700A spacecraft buses.

IRIDIUM 33 DEB was lifted into orbit during the mission ‘Proton-K/17S40 | Iridium 27 to 33’, on board a Proton-K/17S40 space rocket.

The launch took place on Sept. 14, 1997, 1:36 a.m. from 81/23 (81L).

For more information about the launch, click the button.

Launch to space Proton-K/17S40 | Iridium 27 to 33
Proton-K/17S40 | Iridium 27 to 33

Agency: N/A

Status: Launch Successful

Launch date: Sept. 14, 1997, 1:36 a.m. UTC

Rocket: Proton-K/17S40

Launch pad: 81/23 (81L)

Location: Baikonur Cosmodrome, Republic of Kazakhstan

...

Latest news about this satellite

There are no fresh news available about this satellite. Check back as we update our databases every day.


Newsletter sign-up

Weekly statistics, charts and insights to help you stay on top of the space industry.